Greenville, ME

3:01 AM EST on December 15, 2019 (GMT -0500)
Greenville

Weather History for KGNR - July, 2019

Change the Weather History Date:

Friday, July 19, 2019

  Actual Average (KMLT) Record (KMLT)
Temperature  
Mean Temperature 70 °F 68 °F  
Max Temperature 82 °F 79 °F 95 °F (1907)
Min Temperature 57 °F 58 °F 41 °F (1944)
Degree Days  
Heating Degree Days 0 1  
Month to date heating degree days 19  
Since 1 June heating degree days 135  
Since 1 July heating degree days 19  
Cooling Degree Days 4 4  
Month to date cooling degree days 73  
Year to date cooling degree days 128  
Since 1 June cooling degree days 122  
Growing Degree Days 20 (Base 50)    
Moisture  
Dew Point 62 °F    
Average Humidity 76    
Maximum Humidity 90    
Minimum Humidity 60    
Precipitation  
Precipitation 0.00 in 0.12 in 2.53 in (1966)
Month to date precipitation 2.48  
Year to date precipitation 21.62  
Sea Level Pressure  
Sea Level Pressure 29.78 in    
Wind  
Wind Speed 5 mph (SE)    
Max Wind Speed 10 mph    
Max Gust Speed -    
T = Trace of Precipitation, MM = Missing Value Source: NWS Daily Summary

Daily Weather History Graph

Daily Weather History Graph

Search for Another Location

Airport or City:

Astronomy

Jul. 19, 2019 Rise Set
Actual Time 5:07 AM EDT 8:20 PM EDT
Civil Twilight 4:31 AM EDT 8:56 PM EDT
Nautical Twilight 3:45 AM EDT 9:42 PM EDT
Astronomical Twilight 2:47 AM EDT 10:40 PM EDT
Moon 10:11 PM EDT (7/19) 7:35 AM EDT (7/19)
Length of Visible Light 16h 24m
Length of Day
15h 12m
Waning Gibbous, 93% of the Moon is Illuminated
Jul 19
Waning Gibbous
Jul 24
Last Quarter
Jul 31
New
Aug 7
First Quarter
Aug 15
Full

Hourly Weather History & Observations

Time (EDT) Temp. Heat Index Dew Point Humidity Pressure Visibility Wind Dir Wind Speed Gust Speed Precip Events Conditions
12:56 AM 61.0 °F - 54.0 °F 78% 29.90 in - SE 4.6 mph - N/A   Unknown
1:56 AM 61.0 °F - 55.0 °F 81% 29.88 in - SE 5.8 mph - N/A   Unknown
2:56 AM 59.0 °F - 55.0 °F 87% 29.87 in - SE 5.8 mph - N/A   Unknown
3:56 AM 59.0 °F - 55.9 °F 90% 29.87 in - ESE 5.8 mph - N/A   Unknown
4:56 AM 57.9 °F - 55.0 °F 90% 29.87 in - SE 5.8 mph - N/A   Unknown
5:56 AM 59.0 °F - 55.0 °F 87% 29.86 in - Calm Calm - N/A   Unknown
6:56 AM 61.0 °F - 55.9 °F 83% 29.85 in - ESE 5.8 mph - N/A   Unknown
7:56 AM 62.1 °F - 55.9 °F 80% 29.85 in - ESE 6.9 mph - N/A   Unknown
8:56 AM 64.9 °F - 57.9 °F 78% 29.84 in - SE 6.9 mph - N/A   Unknown
9:56 AM 68.0 °F - 59.0 °F 73% 29.82 in - ESE 9.2 mph - N/A   Unknown
10:56 AM 71.1 °F - 60.1 °F 68% 29.79 in - Variable 5.8 mph - N/A   Unknown
11:56 AM 77.0 °F - 62.1 °F 60% 29.77 in - ESE 10.4 mph - N/A   Unknown
12:56 PM 75.9 °F - 63.0 °F 64% 29.75 in - Variable 4.6 mph - N/A   Unknown
1:56 PM 78.1 °F - 64.9 °F 64% 29.74 in - SSW 5.8 mph - N/A   Unknown
2:56 PM 80.1 °F 82.3 °F 66.9 °F 64% 29.72 in - Variable 6.9 mph - N/A   Unknown
3:56 PM 80.1 °F 82.1 °F 66.0 °F 62% 29.71 in - Variable 6.9 mph - N/A   Unknown
4:56 PM 82.0 °F 84.9 °F 68.0 °F 62% 29.68 in - SW 8.1 mph - N/A   Unknown
5:56 PM 80.1 °F 82.7 °F 68.0 °F 67% 29.69 in - SSW 9.2 mph - N/A   Unknown
6:56 PM 79.0 °F - 66.9 °F 66% 29.70 in - Variable 3.5 mph - N/A   Unknown
7:56 PM 75.9 °F - 68.0 °F 76% 29.69 in - Variable 3.5 mph - N/A   Unknown
8:56 PM 73.0 °F - 69.1 °F 87% 29.70 in - Calm Calm - N/A   Unknown
9:56 PM 73.0 °F - 68.0 °F 84% 29.71 in - SSW 3.5 mph - N/A   Unknown
10:56 PM 72.0 °F - 66.9 °F 84% 29.71 in - Calm Calm - N/A   Unknown
11:56 PM 73.0 °F - 66.9 °F 81% 29.70 in - Variable 3.5 mph - N/A   Unknown